Location: Newark
(55.7681°N, 37.7103°E)
Time: 01:59:47
(UTC+00:00)

Envisat - Visible Passes

Search period start: 16 October 2019 00:00
Search period end: 26 October 2019 00:00
Orbit: 764 x 766 km, 98.1° (Epoch: 15 October)

Date Brightness Start Highest point End Pass type
(mag) Time Alt. Az. Time Alt. Az. Time Alt. Az.
16 Oct 3.0 15:02:30 10° SSE 15:07:35 75° ENE 15:12:40 10° NNW visible
16 Oct 5.5 16:43:16 10° SW 16:47:10 22° W 16:51:06 10° NW visible
17 Oct 6.2 03:04:49 10° NE 03:07:52 16° E 03:10:54 10° ESE visible
17 Oct 4.5 16:05:17 10° SSW 16:10:02 39° W 16:14:50 10° NNW visible
18 Oct 3.3 15:28:01 10° S 15:33:06 73° WSW 15:38:12 10° NNW visible
18 Oct 6.0 17:10:22 10° WSW 17:13:04 14° W 17:15:46 10° NW visible
19 Oct 3.0 14:51:19 10° SSE 14:56:20 63° ENE 15:01:23 10° N visible
19 Oct 5.3 16:31:33 10° SSW 16:35:47 26° W 16:40:03 10° NW visible
20 Oct 6.3 02:54:05 10° NE 02:56:25 13° E 02:58:45 10° ESE visible
20 Oct 4.1 15:53:48 10° S 15:58:42 47° W 16:03:38 10° NNW visible
21 Oct 3.1 15:16:43 10° SSE 15:21:49 86° WSW 15:26:57 10° NNW visible
21 Oct 5.9 16:58:20 10° SW 17:01:37 17° W 17:04:56 10° NW visible
22 Oct 6.0 03:18:35 10° NE 03:22:20 20° E 03:26:03 10° SE visible
22 Oct 4.9 16:19:55 10° SSW 16:24:24 31° W 16:28:56 10° NNW visible
23 Oct 6.6 02:43:51 10° ENE 02:44:57 11° E 02:46:02 10° E visible
23 Oct 3.7 15:42:23 10° S 15:47:23 57° W 15:52:25 10° NNW visible
23 Oct 6.3 17:26:19 10° W 17:27:35 11° W 17:28:49 10° WNW visible
24 Oct 3.0 15:05:28 10° SSE 15:10:33 80° ENE 15:15:40 10° NNW visible
24 Oct 5.6 16:46:27 10° SW 16:50:12 20° W 16:53:59 10° NW visible
25 Oct 6.1 03:07:38 10° NE 03:10:54 17° E 03:14:09 10° SE visible
25 Oct 4.6 16:08:21 10° SSW 16:13:03 37° W 16:17:46 10° NNW visible
